Regional Weather Roundup
Issued by NWS Northern Indiana

Home | Current Version | Previous Version | Text Only | Print | Product List | Glossary Off
Versions: 1 2 3 4 5 6 7 8 9 10 11 12 13 14 15 16 17 18 19 20 21 22 23 24 25 26 27 28 29 30 31 32 33 34 35 36 37 38 39 40 41 42 43 44 45 46 47 48 49 50

000
ASUS43 KIWX 240900
RWRIWX

KIWX WEATHER ROUNDUP
NATIONAL WEATHER SERVICE NORTHERN INDIANA
500 AM EDT FRI OCT 24 2014

NOTE: "FAIR" INDICATES FEW OR NO CLOUDS BELOW 12,000 FEET WITH NO
SIGNIFICANT WEATHER AND/OR OBSTRUCTIONS TO VISIBILITY.

* THESE STATIONS ARE NOT UNDER NWS QUALITY CONTROL. THEY ALSO MAY NOT
  REPORT WEATHER SUCH AS PRECIPITATION OR FOG.

INZ001>027-241000-
NORTHERN INDIANA

CITY           SKY/WX    TMP DP  RH WIND       PRES   REMARKS
SOUTH BEND     CLOUDY    51  42  71 SW7       30.07S
GOSHEN         CLOUDY    46  41  82 S5        30.07S
ANGOLA*        CLOUDY    41  39  93 CALM      30.07F
FORT WAYNE     MOCLDY    38  35  89 CALM      30.10S

$$
INZ028>050-241000-
CENTRAL INDIANA

CITY           SKY/WX    TMP DP  RH WIND       PRES   REMARKS
LAFAYETTE      CLOUDY    47  42  83 CALM      30.08F
KOKOMO*        MOCLDY    43  37  81 S5        30.10R
MUNCIE*        PTCLDY    38  36  92 CALM      30.10S
INDIANAPOLIS   MOCLDY    44  39  82 CALM      30.09S

$$
MIZ043>046-050>051-056>058-064>065-071>073-077>080-241000-
SOUTHWEST LOWER MICHIGAN

CITY           SKY/WX    TMP DP  RH WIND       PRES   REMARKS
BATTLE CREEK   PTCLDY    42  37  82 S3        30.07S HAZE
BENTON HARBOR  CLOUDY    51  42  71 S6        30.05S
COLDWATER*     CLOUDY    43  42  97 CALM      30.07F FOG
HILLSDALE*     CLEAR     35  35 100 CALM      30.07F FOG
HOLLAND        CLOUDY    52  44  74 CALM      30.05S
GRAND RAPIDS   CLOUDY    47  42  83 CALM      30.05S
KALAMAZOO      MOCLDY    46  41  82 S5        30.07R HAZE
STURGIS*       PTCLDY    45  39  81 CALM      30.06S
THREE RIVERS*  CLOUDY    47  42  84 CALM      30.07S

$$
OHZ001>008-015>018-024>025-241000-
NORTHWEST OHIO

CITY           SKY/WX    TMP DP  RH WIND       PRES   REMARKS
DEFIANCE       PTCLDY    36  34  92 CALM      30.09F
FINDLAY        MOCLDY    38  36  92 S3        30.09F
TOLEDO EXPRESS PTCLDY    36  35  96 CALM      30.09F FOG
TOLEDO METCALF MOCLDY    40  36  86 SW3       30.11R
LIMA           MOCLDY    42  38  85 CALM      30.10S

$$
AND FOR LAKE MICHIGAN COASTAL AND OPEN LAKE BUOY OBSERVATIONS

STATION/POSITION TEMP    WIND        PRES    VSBY  WAVE
                 AIR SEA DIR/SP/G                  HT/PER
                 (F)     (DEG/KT/KT) (MB)    (MI)  (FT/S)
CALUMET HARBOR    54     210/  4/  5 1016.1F
MICHIGAN CITY     53     170/  6/  7   N/A
SAINT JOSEPH      52                 1017.9S
SOUTH LAKE BUOY   55 54  210/ 10/ 12 1017.4S         1/ 3

$$
&&



USA.gov is the U.S. government's official web portal to all federal, state and local government web resources and services.